Regional Weather Roundup
Issued by NWS

Home | Current Version | Previous Version | Text Only | Print | Product List | Glossary On
Versions: 1 2 3 4 5 6 7 8 9 10 11 12 13 14 15 16 17 18 19 20 21 22 23 24 25 26 27 28 29 30 31 32 33 34 35 36 37 38 39 40 41 42 43 44 45 46 47 48 49 50
350
ASUS44 KFWD 201403
RWRTX
NORTH TEXAS HOURLY WEATHER ROUNDUP
NATIONAL WEATHER SERVICE FORT WORTH TX
800 AM CST MON FEB 20 2017

NOTE: "FAIR" INDICATES FEW OR NO CLOUDS BELOW 12,000 FEET WITH NO
SIGNIFICANT WEATHER AND/OR OBSTRUCTIONS TO VISIBILITY.

TXZ118-119-201500-
DALLAS/FORT WORTH METROPLEX

CITY           SKY/WX    TMP DP  RH WIND       PRES   REMARKS
DFW AIRPORT    LGT RAIN  58  57  97 SE17      29.87F
DALLAS LOVE    LGT RAIN  58  56  93 SE22G29   29.91F
FTW MEACHAM    CLOUDY    58  55  90 S10       29.93R
DAL-EXECUTIVE  LGT RAIN  57  57 100 SE16      29.91F
FTW-ALLIANCE   CLOUDY    57  55  93 S9        29.90F
FTW-NAS-JRB    CLOUDY    59  56  89 S9        29.93R
FTW-SPINKS     CLOUDY    57  55  94 SE12G20   29.93F
ARLINGTON      CLOUDY    57  55  93 SE16      29.91S
GRAND PRAIRIE  CLOUDY    57  57 100 E13       29.91F
ADDISON        RAIN      57  57 100 SE15G22   29.92S
MESQUITE       CLOUDY    57  55  94 SE14      29.98R FOG
LANCASTER      LGT RAIN  56  55  97 SE10      29.96F
$$

TXZ091>094-102>105-117-120-121-131>134-201500-
NORTH CENTRAL TEXAS

CITY           SKY/WX    TMP DP  RH WIND       PRES   REMARKS
SHRMAN/DENISON CLOUDY    56  55  97 S7        29.95R
GAINESVILLE    CLOUDY    55  53  95 SE3       29.93S
BOWIE          CLOUDY    55  55 100 S6        29.89R
BRIDGEPORT     CLOUDY    55  55 100 S3        29.92R
DECATUR        CLOUDY    55  54  97 SE8       29.91R FOG
DENTON         CLOUDY    56  56 100 VRB5      29.91S
MCKINNEY       LGT RAIN  57  57 100 SE8       29.95R
BONHAM         CLOUDY    55  55 100 SE10      29.95R
GREENVILLE     RAIN      57  55  94 SE14      29.99R
ROCKWALL       LGT RAIN  57  57 100 SE9       29.98R
TERRELL        RAIN      58  56  93 SE14      30.00R
WAXAHACHIE     LGT RAIN  56  56 100 E12G20    29.93F
CLEBURNE       CLOUDY    57  57 100 SE14      29.94R
GRANBURY       CLOUDY    58  55  92 SE7       29.95R
$$

TXZ083>090-098>101-113>116-127>130-139>142-154-155-201500-
WESTERN NORTH TEXAS

CITY           SKY/WX    TMP DP  RH WIND       PRES   REMARKS
WICHITA FALLS  CLOUDY    54  52  93 S15       29.86R
WF-KICKAPOO    CLOUDY    55  53  94 S12       29.87R
VERNON         PTCLDY    53  49  84 SW7       29.85R
ABILENE        CLOUDY    51  47  86 SW7       29.93R
ABILENE-DYESS  CLOUDY    51  42  70 W6        29.91R
GRAHAM         MOCLDY    55  55 100 S6        29.89R
BRECKENRIDGE   CLOUDY    56  53  88 SW6       29.91R
CISCO          CLOUDY    54  52  94 SW7       29.92R
RANGER         CLOUDY    54  54 100 SW7       29.93S
MINERAL WELLS  MOCLDY    55  54  96 S7        29.89S
STEPHENVILLE   CLOUDY    55  53  94 CALM      29.95R
COMANCHE       CLOUDY    53  53 100 SE5       29.93S
BROWNWOOD      CLOUDY    54  54 100 S3        29.94R
COLEMAN        MOCLDY    54  49  82 W5        29.93R
$$

TXZ143>147-156>162-174-175-201500-
CENTRAL TEXAS

CITY           SKY/WX    TMP DP  RH WIND       PRES   REMARKS
WACO           CLOUDY    57  57 100 MISG      29.94R
WACO-MCGREGOR  CLOUDY    57  56  96 SE16      29.97R
HILLSBORO      CLOUDY    58  57  97 SE15      29.96R
CORSICANA      RAIN      57  57 100 SE12      30.04R FOG
MEXIA          RAIN      56  56  98 E10       29.99F
CAMERON        RAIN      58  58  98 E10       30.01R
TEMPLE         LGT RAIN  57  56  96 E14       29.97R
KILLEEN        CLOUDY    56  56  98 S12       30.01R
KILLEEN-SKYLRK CLOUDY    57  56  96 SE12      29.97R
FORT HOOD      CLOUDY    56  56 100 SE14      29.94R
HAMILTON       CLOUDY    56  56 100 S8        29.95R
LAMPASAS       CLOUDY    57  56  97 S5        29.98R
$$

TXZ095>097-106>112-122>126-135>138-148>153-164>167-201500-
EAST TEXAS

CITY           SKY/WX    TMP DP  RH WIND       PRES   REMARKS
PARIS          CLOUDY    55  54  94 SW7       29.98R
SULPHUR SPRNGS LGT RAIN  58  58 100 S5        30.02R
MOUNT PLEASANT CLOUDY    58  58 100 SE9       30.04R
GILMER         LGT RAIN  56  56  99 CALM      30.03R
MINEOLA        RAIN      57  57 100 S5        30.02R
TYLER          RAIN      58  58 100 SE7       30.01R
LONGVIEW       RAIN      59  58  96 SW13      30.05R FOG
MARSHALL       CLOUDY    57  55  91 CALM      30.04R
ATHENS         RAIN      55  55 100 SE3       30.02R
JACKSONVILLE   RAIN      57  57 100 E5        30.06R
CENTER         CLOUDY    63  62  94 N6        30.04R
NACOGDOCHES    CLOUDY    59  55  88 SW9       30.05R
LUFKIN         LGT RAIN  59  56  89 NW10      30.05R
$$

SUPPLEMENTAL OBSERVATIONS (CENTRAL)

CITY           SKY/WX    TMP DP  RH WIND       PRES   REMARKS
$$

SUPPLEMENTAL OBSERVATIONS (WEST)

CITY           SKY/WX    TMP DP  RH WIND       PRES   REMARKS
$$

SUPPLEMENTAL OBSERVATIONS (EAST)

CITY           SKY/WX    TMP DP  RH WIND       PRES   REMARKS
$$

SUPPLEMENTAL OBSERVATIONS ARE A COLLECTION OF AUTOMATED INSTRUMENTS
THAT ARE MAINTAINED BY A VARIETY OF FEDERAL AND STATE AGENCIES.
CERTAIN ELEMENTS...SUCH AS HUMIDITY VALUES AND SUSTAINED WIND
SPEEDS...MAY BE APPROXIMATED.





USA.gov is the U.S. government's official web portal to all federal, state and local government web resources and services.